Location: Brachbach
(49.1847°N, 9.7240°E)
Time: 00:37:39
(UTC+00:00)

FENGYUN 3A - Pass Details

Date: 18 August 2024
Orbit: 822 x 834 km, 98.6° (Epoch: 07 September)

Event Time Altitude Azimuth Distance (km) Brightness Sun altitude
Rises 00:40:28 0° 24° (NNE) 3,392 8.2 -25.6°
Reaches altitude 10° 00:43:16 10° 37° (NE) 2,452 7.1 -25.5°
Maximum altitude 00:47:43 25° 92° (E) 1,609 5.3 -25.2°
Enters shadow 00:49:53 20° 127° (SE) 1,842 5.3 -25.1°
